Tracking 20083 objects as of 12-Dec-2019
HD Live streaming from Space Station
objects crossing your sky now

INTELSAT 3-F7

Track INTELSAT 3-F7 now!
INTELSAT 3-F7 is classified as:


NORAD ID: 4376
Int'l Code: 1970-032A
Perigee: 35,797.4 km
Apogee: 35,838.8 km
Inclination: 3.6 °
Period: 1,437.3 minutes
Semi major axis: 42189 km
RCS: 0.003 m2 (small)
Launch date: April 23, 1970
Source: International Telecommunications Satellite Organization (ITSO)
Launch site: AIR FORCE EASTERN TEST RANGE (AFETR)
aabbcc
Your satellite tracking list
Your tracking list is empty




NASA's NSSDC Master Catalog

Two Line Element Set (TLE):
1  4376U 70032A   19345.47932215 +.00000177 +00000-0 +00000-0 0  9992
2  4376 003.6439 286.2968 0004911 006.7617 353.5109 01.00184911023499
Source of the keplerian elements: AFSPC